Location: Beneden-Haastrecht
(52.0012°N, 4.7557°E)
Time: 01:37:55
(UTC+00:00)

Cosmos 1486 Rocket - Visible Passes

Search period start: 27 February 2021 00:00
Search period end: 09 March 2021 00:00
Orbit: 759 x 783 km, 74.1° (Epoch: 26 February)

Date Brightness Start Highest point End Pass type
(mag) Time Alt. Az. Time Alt. Az. Time Alt. Az.
27 Feb 4.0 18:35:27 10° NNW 18:40:45 76° ENE 18:46:04 10° SSE visible
27 Feb 6.4 20:18:35 10° NW 20:22:18 20° W 20:26:00 10° SW visible
28 Feb 4.2 17:59:20 10° NNW 18:04:29 51° ENE 18:09:38 10° SE visible
28 Feb 5.8 19:41:50 10° NW 19:46:23 30° W 19:50:56 10° SSW visible
01 Mar 5.1 19:05:22 10° NW 19:10:24 46° WSW 19:15:25 10° S visible
02 Mar 4.4 18:29:02 10° NNW 18:34:19 70° WSW 18:39:35 10° SSE visible
02 Mar 7.0 20:13:32 10° WNW 20:15:27 12° W 20:17:22 10° WSW visible
03 Mar 4.0 17:52:49 10° NNW 17:58:08 79° ENE 18:03:27 10° SSE visible
03 Mar 6.7 19:36:01 10° NW 19:39:38 19° W 19:43:16 10° SW visible
04 Mar 6.1 18:59:14 10° NW 19:03:45 29° W 19:08:14 10° SSW visible
05 Mar 5.3 18:22:45 10° NW 18:27:45 44° WSW 18:32:46 10° S visible
06 Mar 7.3 19:31:07 10° WNW 19:32:47 11° W 19:34:28 10° WSW visible
07 Mar 6.9 18:53:27 10° NW 18:57:00 18° W 19:00:32 10° SW visible
08 Mar 6.4 18:16:39 10° NW 18:21:06 28° W 18:25:33 10° SSW visible
